West Plains, MO

1:01 AM CDT on June 22, 2018 (GMT -0500)
West Plains Municipal

Weather History for KUNO - June, 2018

Change the Weather History Date:

Wednesday, June 13, 2018

  Actual Average Record
Temperature  
Mean Temperature 82 °F 73 °F  
Max Temperature 92 °F 84 °F 100 °F (1953)
Min Temperature 71 °F 63 °F 42 °F (1985)
Degree Days  
Heating Degree Days 0 0  
Month to date heating degree days 0 4  
Since 1 June heating degree days 0 4  
Since 1 July heating degree days 4217 4346  
Cooling Degree Days 17 8  
Month to date cooling degree days 151 90  
Year to date cooling degree days 405 212  
Since 1 June cooling degree days 151 90  
Growing Degree Days 30 (Base 50)    
Moisture  
Dew Point 70 °F    
Average Humidity 73    
Maximum Humidity 93    
Minimum Humidity 52    
Precipitation  
Precipitation 0.00 in 0.14 in 1.13 in (2008)
Month to date precipitation 0.47 1.71  
Year to date precipitation 23.21 20.98  
Sea Level Pressure  
Sea Level Pressure 29.98 in    
Wind  
Wind Speed 2 mph (NNW)    
Max Wind Speed 8 mph    
Max Gust Speed 13 mph    
Visibility 10 miles    
Events      
T = Trace of Precipitation, MM = Missing Value Source: NWS Daily Summary

Daily Weather History Graph

Daily Weather History Graph

Search for Another Location

Airport or City:

Astronomy

Jun. 13, 2018 Rise Set
Actual Time 5:47 AM CDT 8:27 PM CDT
Civil Twilight 5:17 AM CDT 8:58 PM CDT
Nautical Twilight 4:38 AM CDT 9:36 PM CDT
Astronomical Twilight 3:55 AM CDT 10:19 PM CDT
Moon 5:47 AM CDT (6/13) 8:25 PM CDT (6/13)
Length of Visible Light 15h 41m
Length of Day
14h 40m
Waning Crescent, 0% of the Moon is Illuminated
Jun 13
Waning Crescent
Jun 13
New
Jun 20
First Quarter
Jun 27
Full
Jul 6
Last Quarter

Hourly Weather History & Observations

Time (CDT) Temp. Heat Index Dew Point Humidity Pressure Visibility Wind Dir Wind Speed Gust Speed Precip Events Conditions
12:53 AM 73.0 °F - 68.0 °F 84% 29.95 in 10.0 mi West 3.5 mph - N/A   Clear
1:53 AM 72.0 °F - 68.0 °F 87% 29.94 in 10.0 mi West 4.6 mph - N/A   Clear
2:53 AM 71.1 °F - 68.0 °F 90% 29.93 in 10.0 mi Calm Calm - N/A   Clear
3:53 AM 71.1 °F - 68.0 °F 90% 29.94 in 10.0 mi Calm Calm - N/A   Mostly Cloudy
4:53 AM 75.0 °F - 68.0 °F 79% 29.95 in 10.0 mi NW 4.6 mph - N/A   Mostly Cloudy
5:53 AM 72.0 °F - 66.9 °F 84% 29.96 in 10.0 mi NE 3.5 mph - N/A   Scattered Clouds
6:53 AM 73.9 °F - 69.1 °F 85% 29.99 in 10.0 mi Calm Calm - N/A   Partly Cloudy
7:53 AM 78.1 °F - 70.0 °F 76% 30.00 in 10.0 mi Calm Calm - N/A   Scattered Clouds
8:53 AM 81.0 °F 84.4 °F 70.0 °F 69% 30.02 in 10.0 mi Variable 3.5 mph - N/A   Scattered Clouds
9:53 AM 82.9 °F 87.5 °F 71.1 °F 67% 30.01 in 10.0 mi Variable 3.5 mph - N/A   Partly Cloudy
10:53 AM 86.0 °F 90.7 °F 70.0 °F 59% 30.01 in 10.0 mi Variable 4.6 mph - N/A   Clear
11:53 AM 86.0 °F 90.1 °F 69.1 °F 57% 30.01 in 10.0 mi North - - N/A   Scattered Clouds
12:53 PM 87.1 °F 92.0 °F 70.0 °F 57% 30.01 in 10.0 mi Calm Calm - N/A   Mostly Cloudy
1:53 PM 88.0 °F 92.9 °F 70.0 °F 55% 30.01 in 10.0 mi Variable 5.8 mph - N/A   Clear
2:53 PM 90.0 °F 96.4 °F 71.1 °F 54% 30.01 in 10.0 mi North - - N/A   Partly Cloudy
3:53 PM 90.0 °F 96.4 °F 71.1 °F 54% 29.99 in 10.0 mi NNW 4.6 mph - N/A   Clear
4:53 PM 90.0 °F 96.4 °F 71.1 °F 54% 29.97 in 10.0 mi North 4.6 mph - N/A   Partly Cloudy
6:53 PM 87.1 °F 93.6 °F 72.0 °F 61% 29.96 in 10.0 mi NNE 4.6 mph - N/A   Clear
7:53 PM 84.0 °F 91.2 °F 73.9 °F 72% 29.97 in 10.0 mi Calm Calm - N/A   Clear
8:53 PM 80.1 °F 84.2 °F 73.0 °F 79% 29.97 in 10.0 mi Calm Calm - N/A   Clear
9:53 PM 78.1 °F - 73.0 °F 84% 29.99 in 10.0 mi Calm Calm - N/A   Clear
10:53 PM 73.9 °F - 71.1 °F 91% 30.00 in 10.0 mi Calm Calm - N/A   Clear
11:53 PM 73.0 °F - 71.1 °F 93% 30.01 in 10.0 mi Calm Calm - N/A   Clear